Location: Havírna
(49.6620°N, 13.9572°E)
Time: 10:16:02
(UTC+00:00)

Daily predictions for brighter satellites

Satellite Brightness Start Highest point End
(mag) Time Altitude Azimuth Time Altitude Azimuth Time Altitude Azimuth
BREEZE-M DEB (TANK) 4.3 18:49:20 10° WSW 18:53:56 86° SSE 19:13:23 10° ENE
Cosmos 1607 3.9 19:06:02 10° SSW 19:12:08 66° ESE 19:18:20 10° NE
Cosmos 2322 Rocket 3.6 19:08:09 10° NNW 19:12:52 26° NE 19:17:34 10° E
Terra 1.8 19:09:02 10° SSE 19:13:43 82° ENE 19:18:26 10° NNW
GEOS 3 Rocket 4.2 19:09:02 10° SSE 19:14:17 60° SW 19:19:37 10° NW
Cosmos 2237 4.4 19:08:41 10° NNW 19:14:27 71° ENE 19:20:10 10° SE
Cosmos 1743 2.0 19:12:07 10° N 19:15:09 90° ESE 19:18:09 10° S
Resurs 01 Rocket 4.5 19:12:47 10° WSW 19:15:11 14° W 19:17:34 10° NW
Cosmos 1302 Rocket 4.0 19:10:33 10° S 19:15:37 60° ESE 19:20:44 10° NNE
Cosmos 2082 Rocket 2.3 19:12:13 10° S 19:17:48 59° ESE 19:23:26 10° NE
Cosmos 2151 4.3 19:14:57 10° NNE 19:18:17 23° ENE 19:21:35 10° ESE
Cosmos 1459 Rocket 4.2 19:12:56 10° SSW 19:19:08 81° W 19:25:18 10° N
Cosmos 2369 3.8 19:14:48 10° NNW 19:20:35 85° ENE 19:26:18 10° SSE
ADEOS 3.6 19:16:14 10° SSE 19:21:27 82° ENE 19:26:41 10° NNW
Okean 2 Rocket 4.2 19:17:11 10° SSW 19:21:32 50° WNW 19:25:56 10° N
Helios 1A Rocket 2.1 19:21:01 10° NNE 19:24:11 79° ESE 19:27:19 10° SSW
Cosmos 1802 Rocket 4.0 19:18:16 10° S 19:24:27 85° E 19:30:37 10° N
Cosmos 44 Rocket 4.2 19:21:07 10° SW 19:26:08 58° NW 19:31:18 10° NE
NOSS 3-3 (C) 3.9 19:26:32 10° SSW 19:31:32 49° ESE 19:37:26 10° NE
Meteor 1-31 Rocket 4.3 19:30:25 10° SSW 19:33:31 30° W 19:36:37 10° NNW
Cosmos 1892 Rocket 4.1 19:32:07 10° NNW 19:36:22 60° W 19:40:35 10° S
Cosmos 1455 Rocket 3.3 19:32:02 10° SSW 19:36:25 74° W 19:40:49 10° N
USA 306 2.7 19:34:06 10° W 19:37:21 49° NNW 19:39:36 10° ENE
CZ-4B R/B 3.8 19:35:01 10° ESE 19:37:47 26° ENE 19:40:44 10° N
Okean O Rocket 1.6 19:34:30 10° SSE 19:38:46 69° ENE 19:43:04 10° N
Cosmos 2278 4.3 19:33:43 10° NNW 19:39:14 46° NE 19:44:30 11° SE
Meteor 1-27 4.4 19:36:41 10° SSW 19:42:20 80° WNW 19:47:56 10° N
Cosmos 2228 2.8 19:38:30 10° S 19:42:36 85° E 19:46:44 10° N
USA 186 1.5 19:40:57 11° SSE 19:43:26 58° ENE 19:46:09 10° N
NOSS 3-4 (A) 4.2 19:37:19 10° NW 19:43:41 56° NE 19:51:12 10° ESE
SL-16 R/B 2.5 19:38:15 10° NNW 19:43:53 60° ENE 19:49:05 12° SE
NOSS 3-4 (C) 4.2 19:37:57 10° NW 19:44:20 55° NE 19:51:51 10° ESE
Cosmos 1544 Rocket 3.9 19:45:54 10° SSE 19:50:01 44° E 19:54:08 10° NNE
Cosmos 2233 Rocket 4.0 19:45:08 10° S 19:51:20 86° E 19:57:30 10° N
CZ-2C R/B 3.8 19:55:38 14° ESE 19:57:04 19° ENE 19:59:08 10° NNE
COSMOS 2406 3.3 19:53:07 10° S 19:58:44 60° ESE 20:04:23 10° NE
Cosmos 1980 Rocket 3.9 19:54:16 10° NW 19:59:05 29° WSW 20:03:53 10° SSW
Okean-O 2.7 19:55:14 10° S 19:59:36 77° WSW 20:04:00 10° NNW
Cosmos 1782 3.7 19:56:43 10° SSW 20:00:05 44° WNW 20:03:30 10° N
CZ-4 R/B 3.8 19:57:48 10° SW 20:00:17 17° W 20:02:48 10° NW
Ariane Rocket 3.4 19:58:02 14° SE 20:02:10 49° ENE 20:07:03 10° N
Meteor 1-20 Rocket 4.2 19:59:16 10° N 20:04:52 75° ENE 20:09:56 13° SSE
Cosmos 1933 3.5 20:02:11 13° SSE 20:05:16 45° E 20:08:56 10° NNE
SPOT 3 Rocket 3.6 20:01:10 14° SSE 20:05:37 66° ENE 20:10:43 10° N
Cosmos 1758 Rocket 3.5 20:02:17 10° N 20:06:43 86° E 20:10:37 13° S
Spot 2 Rocket 3.9 20:02:37 10° S 20:07:35 63° WSW 20:12:36 10° NNW
DNEPR-1 R/B 4.4 20:04:58 10° NW 20:10:22 74° NE 20:15:40 16° SE
Cosmos 2333 Rocket 2.2 20:06:01 10° NNW 20:11:45 82° ENE 20:16:16 17° SSE
Cosmos 1825 Rocket 4.4 20:15:47 10° N 20:19:50 36° ENE 20:22:19 20° SE
Okean 1 4.4 20:22:19 21° ESE 20:23:23 24° E 20:26:19 10° NE
USA 245 4.3 20:19:40 14° SSE 20:24:51 83° WSW 20:30:26 10° NNW
Cosmos 2360 Rocket 2.4 20:20:01 10° NNW 20:25:40 65° ENE 20:29:39 20° SE
Cosmos 1461 2.4 20:23:09 10° SW 20:26:50 81° SE 20:30:32 10° NE
CZ-4B R/B 3.3 20:25:36 19° SSE 20:29:05 85° ENE 20:33:57 10° NNW
Cosmos 1602 Rocket 3.5 20:26:35 10° N 20:30:56 87° E 20:33:49 21° S
CZ-4C R/B 4.1 20:27:05 10° W 20:31:17 30° NNW 20:36:32 10° NE
Cosmos 2333 4.4 20:27:31 10° NNW 20:33:13 63° ENE 20:37:06 21° SE
Cosmos 1777 Rocket 4.0 20:32:38 10° NNW 20:37:54 79° ENE 20:41:10 23° SSE
ISS -3.2 20:34:52 10° W 20:38:11 59° N 20:41:23 11° E
Cosmos 2219 Rocket 2.6 20:33:31 10° NNW 20:39:04 54° NE 20:42:48 21° SE
Meteor 1-25 Rocket 4.3 20:33:55 10° NNW 20:39:36 80° W 20:43:46 18° S
Cosmos 220 Rocket 3.7 20:36:01 11° SSW 20:39:51 79° ESE 20:43:59 10° NNE
Cosmos 1437 Rocket 2.9 20:36:40 12° SSW 20:39:57 63° WNW 20:43:33 10° N
USA 290 2.8 20:39:46 33° SE 20:40:08 34° ESE 20:43:01 10° NE
Helios 1A 4.2 20:43:10 10° NE 20:46:15 22° E 20:46:48 21° ESE
Cosmos 1503 Rocket 4.0 20:41:12 10° NNW 20:46:25 73° ENE 20:49:23 26° SE
Cosmos 2098 Rocket 3.0 20:44:23 19° S 20:47:48 79° E 20:51:58 10° NNE
DEBRIS 3.8 20:44:21 10° W 20:47:51 89° S 20:59:56 10° E
Cosmos 1076 Rocket 3.8 20:45:26 10° N 20:49:37 52° ENE 20:51:27 29° SE
Terra 4.4 20:49:24 10° WSW 20:51:51 14° W 20:54:19 10° NW
RESURS DK-1 4.3 20:51:49 10° N 20:54:48 20° NE 20:57:22 12° E
Cosmos 2151 4.1 20:51:23 10° NNW 20:55:10 36° W 20:58:09 15° SSW
IRS-1C Rocket 4.4 20:53:40 20° S 20:57:20 61° WSW 21:02:35 10° NNW
Cosmos 2322 Rocket 2.3 20:51:48 10° NNW 20:57:28 74° WSW 21:00:46 26° SSE
Cosmos 1486 Rocket 4.2 20:52:16 10° NNW 20:57:29 66° WSW 21:00:35 25° S
Cosmos 1464 Rocket 3.9 20:53:50 17° S 20:58:39 83° E 21:04:52 10° N
Cosmos 1354 Rocket 4.1 20:55:28 10° NNW 21:00:43 68° ENE 21:03:26 28° SE
Cosmos 2082 Rocket 4.1 20:57:12 10° WSW 21:02:14 31° NW 21:07:18 10° NNE
USA 306 3.5 21:02:33 10° WNW 21:04:27 20° N 21:04:50 19° N
Cosmos 1606 Rocket 3.4 21:03:17 26° S 21:05:43 90° NNE 21:10:03 10° N
Meteor 2-10 4.3 21:00:00 10° NNW 21:05:44 75° W 21:09:14 24° S
CZ-4B R/B 4.4 21:09:42 16° SW 21:11:31 24° W 21:14:23 10° NW
Cosmos 1271 Rocket 4.5 21:12:52 15° E 21:12:52 15° E 21:14:36 10° NE
Cosmos 1766 3.3 21:09:35 10° N 21:12:40 42° ENE 21:13:02 40° E
Cosmos 1726 Rocket 3.2 21:12:35 35° S 21:14:11 81° E 21:18:15 10° NNE
Cosmos 2237 Rocket 4.1 21:10:56 10° N 21:15:19 22° NE 21:19:39 10° E
Okean O Rocket 4.1 21:13:02 10° WSW 21:15:26 14° W 21:17:49 10° NW
Cosmos 540 Rocket 3.5 21:13:16 28° S 21:15:55 63° ESE 21:21:01 10° NNE
Cosmos 1092 Rocket 4.1 21:11:08 10° N 21:17:16 65° ENE 21:20:29 29° SSE
Aureole 1 Rocket 4.1 21:13:18 10° NNW 21:18:58 66° ENE 21:22:39 28° SE
Meteor 1-26 Rocket 4.3 21:17:24 30° SSE 21:20:01 60° E 21:25:38 10° NNE
Cosmos 1805 4.4 21:18:19 10° NNW 21:21:09 28° W 21:22:21 22° SW
Meteor 2-2 Rocket 4.4 21:23:03 32° SSE 21:25:35 57° E 21:31:14 10° NNE
COSMOS 2428 3.5 21:21:26 10° NNW 21:26:55 45° NE 21:30:13 22° ESE
SL-16 R/B 3.7 21:22:57 10° NW 21:27:35 26° WSW 21:30:55 16° SSW
CZ-2C R/B 3.9 21:27:14 19° WSW 21:27:43 20° W 21:29:53 10° NW
Cosmos 468 Rocket 4.3 21:30:32 36° SSE 21:32:16 50° ESE 21:37:21 10° NNE
IKONOS-2 4.3 21:28:20 10° NNE 21:32:28 73° ESE 21:33:38 45° S
Geosat 3.9 21:27:52 10° NE 21:32:52 65° ESE 21:35:08 32° S
NOSS 3-4 (A) 4.3 21:28:10 10° NW 21:34:40 48° WSW 21:38:38 27° S
Cosmos-2242 2.8 21:34:03 47° S 21:35:10 76° E 21:39:18 10° NNE
NOSS 3-4 (C) 4.3 21:28:48 10° NW 21:35:20 48° WSW 21:39:18 27° S
Cosmos 2034 Rocket 4.1 21:32:54 23° SSW 21:37:06 79° W 21:43:29 10° N
USA 234 4.0 21:41:04 10° ENE 21:46:38 29° SE 21:47:10 29° SE
TSX-5 3.2 21:46:52 10° NNW 21:49:59 71° ENE 21:50:06 70° ENE
Cosmos 2333 Rocket 4.1 21:51:31 10° WNW 21:55:20 19° W 21:58:17 13° SW
Helios 1B rocket 1.8 21:55:11 71° SSW 21:55:27 78° WSW 21:58:58 10° NNW
Cosmos 2279 Rocket 4.1 21:53:17 35° SSE 21:55:53 62° E 22:02:04 10° NNE
Cosmos 1763 Rocket 4.0 21:53:12 18° SW 21:57:08 58° WNW 22:02:22 10° NNE
Meteor 1-14 Rocket 4.3 21:51:41 10° N 21:57:13 65° ENE 21:59:19 38° SE
Cosmos 1470 2.5 21:55:00 10° N 21:58:12 59° ENE 21:58:12 59° ENE
Cosmos 1536 2.7 21:55:06 10° NNW 21:58:46 64° W 21:59:12 57° SW
Cosmos 2221 3.0 21:59:07 40° ESE 21:59:32 42° E 22:03:29 10° NNE
SL-08 ROCKET BODY 4.4 21:53:30 10° N 21:59:41 79° E 22:02:20 37° SSE
Cosmos 1707 2.9 21:59:51 42° WNW 21:59:51 42° WNW 22:02:25 10° N
Cosmos 1898 Rocket 3.5 21:55:00 10° NNW 22:00:12 73° ENE 22:02:03 40° SE
Cosmos 1634 Rocket 3.9 21:57:45 33° S 22:00:45 89° W 22:07:00 10° N
CSL-04 DEB 3.9 22:01:35 71° SSW 22:01:52 78° WSW 22:05:31 10° NNW
Cosmos 2297 Rocket 3.4 22:01:44 25° ESE 22:02:27 25° ESE 22:06:59 10° NE
CZ-2C R/B 3.8 21:58:57 10° NNE 22:03:22 59° ESE 22:04:14 49° SSE
Cosmos 44 3.6 22:00:09 10° NW 22:05:28 60° WSW 22:06:56 43° S
Cosmos 2360 Rocket 3.7 22:04:43 10° NW 22:09:11 24° WSW 22:11:23 19° SW
Meteor 2-6 Rocket 4.3 22:08:15 37° S 22:10:47 85° E 22:16:46 10° NNE
Cosmos 2322 3.6 22:05:58 10° NNW 22:11:42 86° WSW 22:13:46 41° SSE
ISS -3.2 22:11:45 10° WNW 22:14:19 49° W 22:14:19 49° W
Cosmos 2058 Rocket 3.7 22:14:25 34° SW 22:15:55 50° WNW 22:20:09 10° N
GP-B 3.8 22:14:03 10° NNE 22:18:09 38° E 22:18:52 35° ESE
SAR-Lupe-2 3.7 22:20:00 54° ENE 22:20:00 54° ENE 22:23:13 10° N
Helios 1A 4.0 22:17:25 10° N 22:21:03 37° WNW 22:22:30 27° WSW
Cosmos 2219 Rocket 3.4 22:17:53 10° NW 22:22:44 30° WSW 22:24:29 25° SW
Cosmos 2266 Rocket 4.0 22:18:25 10° N 22:24:26 66° ENE 22:26:50 37° SSE
Cosmos 1975 2.4 22:21:38 10° N 22:25:19 84° W 22:25:24 83° SW
KORONAS-FOTON 4.4 22:25:06 37° W 22:25:25 39° WNW 22:28:38 10° N
Cosmos 841 Rocket 3.4 22:28:15 48° S 22:29:43 75° ESE 22:34:58 10° NNE
RESURS DK-1 2.3 22:28:34 10° NW 22:32:30 60° WSW 22:32:35 60° WSW
ARIANE 5 R/B 2.7 22:32:16 53° SSW 22:33:05 65° WSW 22:37:32 10° NNW
Meteor 1-19 Rocket 4.2 22:32:11 43° S 22:34:14 81° E 22:40:12 10° NNE
ALOS 2 2.5 22:33:58 59° SSW 22:34:43 75° WSW 22:39:08 10° NNW
Cosmos 2322 Rocket 4.4 22:38:07 10° WNW 22:40:29 13° W 22:42:34 11° WSW
Cosmos 1271 Rocket 3.4 22:46:13 36° W 22:46:24 36° WNW 22:49:35 10° N
Cosmos 1842 4.3 22:47:39 26° WNW 22:47:43 26° WNW 22:50:28 10° NNW
SL-16 R/B 3.9 22:42:56 10° NNW 22:47:51 29° NE 22:52:45 10° ESE
Lacrosse 4 Rocket 2.6 22:51:58 28° E 22:51:58 28° E 22:54:56 10° NE
Cosmos 1655 Rocket 4.4 22:46:29 10° N 22:52:38 56° ENE 22:55:28 31° SE
Spot 4 4.4 22:51:57 40° SW 22:52:55 45° W 22:57:31 10° NNW
Cosmos 1766 Rocket 3.8 22:50:17 10° N 22:54:32 56° ENE 22:55:19 47° ESE
PSLV R/B 3.6 22:50:52 10° N 22:55:09 76° WNW 22:55:59 56° SW
Cosmos 2237 Rocket 2.1 22:54:27 10° NNW 23:00:11 88° ENE 23:02:17 41° SSE
CZ-2C R/B 2.6 22:58:57 42° SE 23:00:46 73° ENE 23:05:58 10° N
BREEZE-M DEB (TANK) 3.9 22:49:20 10° WSW 23:02:31 85° NNW 23:06:00 10° ENE
Cosmos 1980 3.6 22:58:39 10° NNW 23:04:20 82° WSW 23:06:13 44° SSE
ARGOS Delta rocket 4.4 22:59:31 10° N 23:04:34 58° WNW 23:06:31 36° SW
Iridium 4 Rocket 4.4 23:04:44 31° SE 23:06:55 46° E 23:12:26 10° NNE
Cosmos 1937 Rocket 4.0 23:03:44 10° NW 23:08:34 43° WSW 23:09:27 39° SW
COSMOS 2428 3.4 23:05:53 10° NW 23:11:03 37° WSW 23:12:11 34° SW
Cosmos 2227 Rocket 3.0 23:11:04 32° SE 23:12:23 37° ESE 23:17:33 10° NE
Meteor 2-4 Rocket 3.7 23:11:49 45° SSE 23:13:25 67° E 23:18:55 10° NNE
NOSS 0 Rocket 4.3 23:07:56 10° NW 23:13:49 48° WSW 23:15:26 39° SSW
Meteor 1-11 Rocket 4.1 23:08:40 10° NNW 23:14:09 52° W 23:15:45 39° SW
MetOp-A 4.0 23:18:10 48° SW 23:19:08 58° WSW 23:23:46 10° NNW
Cosmos 2263 Rocket 3.4 23:20:54 25° SE 23:22:19 28° ESE 23:27:00 10° NE
Cosmos 1238 Rocket 2.7 23:25:54 69° SW 23:26:20 80° W 23:30:42 10° N
USA 234 3.2 23:23:41 10° ENE 23:30:16 82° SE 23:34:29 24° SW
SeaSat 1 2.5 23:28:37 34° SE 23:30:46 75° ENE 23:35:41 10° NNW
CZ-2C R/B 3.5 23:27:44 10° N 23:33:28 68° WNW 23:35:48 37° SW
Cosmos 1758 4.0 23:31:20 10° N 23:34:47 40° ENE 23:35:23 36° ESE
Meteor 1-27 Rocket 3.9 23:32:34 38° SW 23:34:47 66° WNW 23:40:31 10° N
ACS3 Solar Sail 2.2 23:29:04 10° NNE 23:34:52 50° E 23:37:20 32° SSE
Cosmos 2221 4.3 23:35:23 18° W 23:36:45 21° WNW 23:40:00 10° NNW
ATLAS 2AS CENTAUR R/B 3.9 23:32:30 10° NW 23:38:53 40° NNE 23:45:14 10° E
Meteor 2-20 Rocket 4.3 23:37:28 40° SSW 23:39:34 71° WNW 23:45:17 10° N
BlueWalker 3 2.5 23:41:17 40° E 23:41:17 40° E 23:43:51 10° ENE
Cosmos 2297 Rocket 2.5 23:43:29 32° SW 23:46:04 62° WNW 23:51:41 10° NNE
Cosmos 1125 Rocket 4.1 23:42:08 10° NNW 23:47:22 55° ENE 23:50:47 21° SE
Okean 3 Rocket 3.6 23:43:33 10° N 23:48:05 77° ENE 23:49:21 47° SSE
Landsat 5 3.3 23:46:57 10° N 23:51:02 74° WNW 23:51:40 59° SW
Cosmos 1340 Rocket 3.7 23:48:25 10° N 23:52:04 40° ENE 23:53:20 30° ESE
Cosmos 1842 Rocket 3.5 23:53:33 54° SSW 23:54:28 75° W 23:58:54 10° N
